Location: ??
(35.5672°N, 139.6509°E)
Time: 13:11:19
(UTC+00:00)

ATLAS 5 CENTAUR R/B - Pass Details

Date: 03 August 2024
Orbit: 412 x 1157 km, 63.3° (Epoch: 08 September)

Event Time Altitude Azimuth Distance (km) Brightness Sun altitude
Rises 13:43:27 0° 336° (NNW) 3,038 6.1 -35.0°
Reaches altitude 10° 13:45:43 10° 344° (NNW) 2,233 5.2 -35.2°
Enters shadow 13:48:46 32° 11° (NNE) 1,359 3.6 -35.4°
